Regional Weather Roundup
Issued by NWS

Home | Current Version | Previous Version | Text Only | Print | Product List | Glossary Off
Versions: 1 2 3 4 5 6 7 8 9 10 11 12 13 14 15 16 17 18 19 20 21 22 23 24 25 26 27 28 29 30 31 32 33 34 35 36 37 38 39 40 41 42 43 44 45 46 47 48 49 50

000
ASUS43 KMKX 231900
RWRWI

WISCONSIN REGIONAL WEATHER ROUNDUP
NATIONAL WEATHER SERVICE MILWAUKEE/SULLIVAN WI
200 PM CDT THU OCT 23 2014

NOTE: "FAIR" INDICATES FEW OR NO CLOUDS BELOW 12,000 FEET WITH NO
SIGNIFICANT WEATHER AND/OR OBSTRUCTIONS TO VISIBILITY.

WIZ001-002-006>008-014>016-023>028-232000-
NORTHWEST WISCONSIN

CITY           SKY/WX    TMP DP  RH WIND       PRES   REMARKS
SUPERIOR ARPT  CLOUDY    54  50  87 W7        29.96F
ASHLAND        CLOUDY    52  49  89 SW8       29.98S
HAYWARD        CLOUDY    51  48  89 SW8       29.99S
SIREN          CLOUDY    53  52  94 SW6         N/A
CUMBERLAND     CLOUDY    50  50 100 SW6       29.99F FOG
RICE LAKE      CLOUDY    51  49  93 SW6       30.02S FOG
CHETEK         CLOUDY    50  49  97 CALM      30.01S FOG
LADYSMITH      CLOUDY    48  47  95 S5        30.02F FOG
EAU CLAIRE     NOT AVBL
MENOMONIE      CLOUDY    52  51  96 S3        30.01F FOG
NEW RICHMOND   CLOUDY    56  52  88 CALM      29.99F
OSCEOLA        CLOUDY    57  54  89 S5        30.01F
$$

WIZ003>005-009-010-017-018-232000-
NORTH CENTRAL WISCONSIN

CITY           SKY/WX    TMP DP  RH WIND       PRES   REMARKS
MANITOWISH WTR CLOUDY    44  44 100 S9        29.99F FOG
ARBOR VITAE    LGT RAIN  45  43  95 S7        30.01F
WOODRUFF       LGT RAIN  45  43  95 S7        30.01F
RHINELANDER    LGT RAIN  44  42  93 S6        30.02F
EAGLE RIVER    RAIN      44  44  99 S6        30.01F
LAND O LAKES   LGT RAIN  45  44  95 S7        30.02F
PHILLIPS       CLOUDY    44  44  99 S10       30.01S FOG
TOMAHAWK       DRIZZLE   43  42  95 CALM      30.03F
MEDFORD        CLOUDY    44  43  97 S6        30.02F FOG
MERRILL        RAIN      44  44  99 S3        30.04F
$$

WIZ029-030-035-036-043>047-232000-
CENTRAL WISCONSIN

CITY           SKY/WX    TMP DP  RH WIND       PRES   REMARKS
WAUSAU         LGT RAIN  45  43  93 S6        30.03S
MOSINEE        LGT RAIN  45  45 100 S9        30.05
MARSHFIELD     CLOUDY    47  45  93 S8        30.03F FOG
STEVENS POINT  LGT RAIN  43  42  97 S7        30.05F
WAUPACA        LGT RAIN  48  47  95 S6        30.07F
WAUTOMA        LGT RAIN  46  45  93 CALM      30.06F FOG
WISC RAPIDS    LGT RAIN  47  45  93 SW7       30.05F
CAMP DOUGLAS   NOT AVBL
$$

WIZ011>013-019>022-031-037>040-048>050-232000-
NORTHEAST WISCONSIN

CITY           SKY/WX    TMP DP  RH WIND       PRES   REMARKS
ANTIGO         DRIZZLE   41  41  99 S6        30.05F
SHAWANO        LGT RAIN  48  45  89 CALM      30.08F
OCONTO         CLOUDY    54  43  67 S5        30.07F
STURGEON BAY   PTSUNNY   54  43  66 S13       30.09F
GREEN BAY      LGT RAIN  53  43  68 SW7       30.08F
MANITOWOC      NOT AVBL
APPLETON       LGT RAIN  50  43  76 SW3       30.08F
CLINTONVILLE   HVY RAIN  45  43  93 S3        30.07F
OSHKOSH        LGT RAIN  51  44  77 S6        30.06F
$$

WIZ032>034-041-042-053>061-232000-
SOUTHWEST WISCONSIN

CITY           SKY/WX    TMP DP  RH WIND       PRES   REMARKS
LA CROSSE      CLOUDY    50  47  89 S8        30.03F
SPARTA         CLOUDY    47  45  93 SW3       30.05F
VIROQUA        CLOUDY    46  46 100 S7        30.04F
BOSCOBEL       CLOUDY    50  46  86 S5        30.05F
PRAIRIE DU CHI CLOUDY    48  45  89 SE5       30.05F
PLATTEVILLE    CLOUDY    48  46  95 S12       30.07F
$$

WIZ056-057-062-063-064-067-068-232000-
SOUTH CENTRAL WISCONSIN

CITY           SKY/WX    TMP DP  RH WIND       PRES   REMARKS
REEDSBURG      RAIN      45  44  97 S6        30.06S
BARABOO/DELLS  RAIN      46  44  92 S5        30.06S
LONE ROCK      LGT RAIN  52  45  76 CALM      30.06F
MINERAL POINT  RAIN      48  45  87 SE5       30.05F
MADISON        LGT RAIN  52  45  77 S6        30.06F
MIDDLETON      CLOUDY    51  46  80 S6        30.06S
WATERTOWN      CLOUDY    55  42  61 S3        30.06F
MONROE         CLOUDY    52  46  82 S7        30.07S
JANESVILLE     CLOUDY    59  43  55 S12       30.06F
$$

WIZ051-052-058>065-066-070>072-232000-
SOUTHEAST WISCONSIN

CITY           SKY/WX    TMP DP  RH WIND       PRES   REMARKS
MILWAUKEE      CLOUDY    57  42  57 S10       30.09F
WAUKESHA       SUNNY     54  39  58 S10       30.10F
MILWAUKEE/TIMM SUNNY     57  39  51 S7        30.10F
RACINE         PTSUNNY   57  43  59 SE12      30.11F
BURLINGTON     CLOUDY    57  40  54 S7        30.09F
KENOSHA        CLOUDY    59  43  55 SW8       30.09F
FOND DU LAC    CLOUDY    54  42  64 S9        30.07F
SHEBOYGAN      CLOUDY    53  42  66 SE9       30.09F
WEST BEND      CLOUDY    54  39  58 S7        30.09F
JUNEAU         CLOUDY    54  42  65 S8        30.09S
$$

LSZ147-162-232000-
LAKE SUPERIOR

STATION/POSITION TIME  TEMP    WIND        PRES    WAVE
                       AIR SEA DIR/SP/G            HT/PER
                 (UTC) (F)     (DEG/KT/KT) (MB)    (FT/S)
W MID LAKE BUOY  1750   47 46  190/  6/  8 1015.5F   1/ 3
DEVILS ISLAND    1800   49     180/  7/ 11 1015.2F
PORT WING        1800   52     210/  6/  9 1014.9F
SAXON HARBOR     1800   52     200/  4/ 13 1015.2F
$$

LMZ867-665-643>646-232000-
LAKE MICHIGAN

STATION/POSITION TIME  TEMP    WIND        PRES    WAVE
                       AIR SEA DIR/SP/G            HT/PER
                 (UTC) (F)     (DEG/KT/KT) (MB)    (FT/S)
CHAMBERS ISLAND  1800   55     170/  7/ 12 1019.0F
N MID LAKE BUOY  1750   49 51  190/ 16/ 19 1020.2F   3/ 5
NORTHPORT PIER   1800   53     150/ 11/ 17 1019.3F
SISTER BAY       1643          190/ 16/ 18   N/A
ALGOMA LAKESHORE 1741          220/ 18/ 21   N/A
KEWAUNEE LAKESHO 1800   50     170/ 13/ 17 1018.7F
SHEBOYGAN LAKESH 1800   50 50  170/ 16/ 17 1020.1F
PORT WASHINGTON  1840   52     170/  8/ 13 1020.0F
ATWATER BUOY     1800   51     150/ 14/ 17 1020.9F
MILWAUKEE LAKESH 1800   51     130/ 12/ 16   N/A
S MID LAKE BUOY  1750   52 54  190/ 14/ 16 1021.9F   2/ 4
KENOSHA   LAKESH 1800   54     160/ 13/ 17 1020.0F
$$

TC  - TEMPERATURE IN CELSIUS
VSB - VISIBILITY IN STATUTE MILES
WCI - WIND CHILL INDEX
HX  - HEAT INDEX




USA.gov is the U.S. government's official web portal to all federal, state and local government web resources and services.